Location: ????????
(55.6189°N, 38.3031°E)
Time: 02:53:03
(UTC+00:00)

Cosmos 2082 Rocket - Pass Details

Date: 15 November 2019
Orbit: 833 x 854 km, 71.0° (Epoch: 05 December)

Event Time Altitude Azimuth Distance (km) Brightness Sun altitude
Exits shadow 01:28:03 21° 167° (SSE) 1,831 3.9 -29.6°
Maximum altitude 01:31:20 40° 110° (ESE) 1,245 3.4 -29.1°
Drops below altitude 10° 01:36:37 10° 43° (NE) 2,492 5.3 -28.4°
Sets 01:39:12 0° 37° (NE) 3,430 6.0 -28.0°
